Location: Grądy
(53.8220°N, 21.9699°E)
Time: 22:30:47
(UTC+02:00)

ISS - Visible Passes

Search period start: 25 September 2018 00:00
Search period end: 05 October 2018 00:00
Orbit: 403 x 408 km, 51.6° (Epoch: 26 September)

Date Brightness Start Highest point End Pass type
(mag) Time Alt. Az. Time Alt. Az. Time Alt. Az.
25 Sep -2.3 19:29:35 10° SSW 19:32:09 21° SSE 19:33:24 17° ESE visible
25 Sep -1.5 21:05:01 10° WSW 21:06:06 19° WSW 21:06:06 19° WSW visible
26 Sep -3.3 20:13:16 10° SW 20:16:23 42° SSE 20:16:23 42° SSE visible
27 Sep -2.9 19:21:38 10° SW 19:24:37 32° SSE 19:26:35 17° ESE visible
27 Sep -2.0 20:57:35 10° WSW 20:59:16 27° WSW 20:59:16 27° WSW visible
28 Sep -3.6 20:05:44 10° WSW 20:09:00 54° S 20:09:23 50° SE visible
29 Sep -3.3 19:13:56 10° WSW 19:17:07 45° SSE 19:19:26 17° E visible
29 Sep -2.2 20:50:10 10° W 20:52:07 31° WSW 20:52:07 31° WSW visible
30 Sep -3.7 19:58:15 10° W 20:01:32 60° S 20:02:08 48° SE visible
30 Sep -0.5 21:34:41 10° W 21:34:48 11° W 21:34:48 11° W visible
01 Oct -3.5 19:06:22 10° WSW 19:09:37 56° S 19:12:07 16° E visible
01 Oct -2.3 20:42:44 10° W 20:44:47 32° WSW 20:44:47 32° WSW visible
02 Oct -3.5 19:50:47 10° W 19:54:02 55° S 19:54:46 43° SE visible
02 Oct -0.5 21:27:22 10° W 21:27:26 10° W 21:27:26 10° W visible
03 Oct -3.5 18:58:50 10° W 19:02:06 59° S 19:04:44 15° ESE visible
03 Oct -2.1 20:35:18 10° W 20:37:24 28° WSW 20:37:24 28° WSW visible
04 Oct -3.1 19:43:16 10° W 19:46:27 44° SSW 19:47:23 33° SSE visible
